Time,TemperatureF,DewpointF,PressureIn,WindDirection,WindDirectionDegrees,WindSpeedMPH,WindSpeedGustMPH,Humidity,HourlyPrecipIn,Conditions,Clouds,dailyrainin,SoftwareType,DateUTC
2013-01-03 00:03:00,27.0,-99.9,-100.00,South,187,4.0,-999.0,-999,0.00,,,0.02,,2013-01-03 06:03:00,
2013-01-03 00:12:00,27.0,-99.9,-100.00,South,187,4.0,-999.0,-999,0.00,,,0.02,,2013-01-03 06:12:00,
2013-01-03 00:22:00,27.0,-99.9,-100.00,South,187,4.0,-999.0,-999,0.00,,,0.02,,2013-01-03 06:22:00,
2013-01-03 00:33:00,27.0,-99.9,-100.00,SW,219,4.0,-999.0,-999,0.00,,,0.02,,2013-01-03 06:33:00,
2013-01-03 00:43:00,27.0,-99.9,-100.00,SW,219,4.0,-999.0,-999,0.00,,,0.02,,2013-01-03 06:43:00,
2013-01-03 00:53:00,27.0,-99.9,-100.00,SW,219,4.0,-999.0,-999,0.00,,,0.02,,2013-01-03 06:53:00,
2013-01-03 01:02:00,28.0,-99.9,-100.00,SSW,205,3.0,-999.0,-999,0.00,,,0.02,,2013-01-03 07:02:00,
2013-01-03 01:12:00,28.0,-99.9,-100.00,SSW,205,3.0,-999.0,-999,0.00,,,0.02,,2013-01-03 07:12:00,
2013-01-03 01:22:00,28.0,-99.9,-100.00,SSW,205,3.0,-999.0,-999,0.00,,,0.02,,2013-01-03 07:22:00,
2013-01-03 01:33:00,28.0,-99.9,-100.00,SSW,205,3.0,-999.0,-999,0.00,,,0.02,,2013-01-03 07:33:00,
2013-01-03 01:43:00,28.0,-99.9,-100.00,SSW,205,3.0,-999.0,-999,0.00,,,0.02,,2013-01-03 07:43:00,
2013-01-03 01:53:00,28.0,-99.9,-100.00,SSW,205,3.0,-999.0,-999,0.00,,,0.02,,2013-01-03 07:53:00,
2013-01-03 02:02:00,28.0,-99.9,-100.00,South,179,2.0,-999.0,-999,0.00,,,0.02,,2013-01-03 08:02:00,
2013-01-03 02:12:00,28.0,-99.9,-100.00,South,179,2.0,-999.0,-999,0.00,,,0.02,,2013-01-03 08:12:00,
2013-01-03 02:23:00,28.0,-99.9,-100.00,South,179,2.0,-999.0,-999,0.00,,,0.02,,2013-01-03 08:23:00,
2013-01-03 02:33:00,28.0,-99.9,-100.00,South,172,2.0,-999.0,-999,0.00,,,0.02,,2013-01-03 08:33:00,
2013-01-03 02:43:00,28.0,-99.9,-100.00,South,172,2.0,-999.0,-999,0.00,,,0.02,,2013-01-03 08:43:00,
2013-01-03 02:53:00,28.0,-99.9,-100.00,South,172,2.0,-999.0,-999,0.00,,,0.02,,2013-01-03 08:53:00,
2013-01-03 03:03:00,29.0,-99.9,-100.00,West,260,3.0,-999.0,-999,0.00,,,0.02,,2013-01-03 09:03:00,
2013-01-03 03:12:00,29.0,-99.9,-100.00,West,260,3.0,-999.0,-999,0.00,,,0.02,,2013-01-03 09:12:00,
2013-01-03 03:23:00,29.0,-99.9,-100.00,West,260,3.0,-999.0,-999,0.00,,,0.02,,2013-01-03 09:23:00,
2013-01-03 03:34:00,27.0,-99.9,-100.00,SSW,200,1.0,-999.0,-999,0.00,,,0.02,,2013-01-03 09:34:00,
2013-01-03 03:43:00,27.0,-99.9,-100.00,SSW,200,1.0,-999.0,-999,0.00,,,0.02,,2013-01-03 09:43:00,
2013-01-03 03:53:00,27.0,-99.9,-100.00,SSW,200,1.0,-999.0,-999,0.00,,,0.02,,2013-01-03 09:53:00,
2013-01-03 04:02:00,27.0,-99.9,-100.00,NNE,19,2.0,-999.0,-999,0.00,,,0.02,,2013-01-03 10:02:00,
2013-01-03 04:12:00,27.0,-99.9,-100.00,NNE,19,2.0,-999.0,-999,0.00,,,0.02,,2013-01-03 10:12:00,
2013-01-03 04:23:00,27.0,-99.9,-100.00,NNE,19,2.0,-999.0,-999,0.00,,,0.02,,2013-01-03 10:23:00,
2013-01-03 04:33:00,27.0,-99.9,-100.00,NE,53,1.0,-999.0,-999,0.00,,,0.02,,2013-01-03 10:33:00,
2013-01-03 04:43:00,27.0,-99.9,-100.00,NE,53,1.0,-999.0,-999,0.00,,,0.02,,2013-01-03 10:43:00,
2013-01-03 04:53:00,27.0,-99.9,-100.00,NE,53,1.0,-999.0,-999,0.00,,,0.02,,2013-01-03 10:53:00,
2013-01-03 05:03:00,27.0,-99.9,-100.00,NW,317,1.0,-999.0,-999,0.00,,,0.02,,2013-01-03 11:03:00,
2013-01-03 05:12:00,27.0,-99.9,-100.00,NW,317,1.0,-999.0,-999,0.00,,,0.02,,2013-01-03 11:12:00,
2013-01-03 05:23:00,27.0,-99.9,-100.00,NW,317,1.0,-999.0,-999,0.00,,,0.02,,2013-01-03 11:23:00,
2013-01-03 05:34:00,27.0,-99.9,-100.00,NE,49,2.0,-999.0,-999,0.00,,,0.02,,2013-01-03 11:34:00,
2013-01-03 05:43:00,27.0,-99.9,-100.00,NE,49,2.0,-999.0,-999,0.00,,,0.02,,2013-01-03 11:43:00,
2013-01-03 05:53:00,27.0,-99.9,-100.00,NE,49,2.0,-999.0,-999,0.00,,,0.02,,2013-01-03 11:53:00,
2013-01-03 06:03:00,24.0,-99.9,-100.00,West,267,3.0,-999.0,-999,0.00,,,0.02,,2013-01-03 12:03:00,
2013-01-03 06:12:00,24.0,-99.9,-100.00,West,267,3.0,-999.0,-999,0.00,,,0.02,,2013-01-03 12:12:00,
2013-01-03 06:23:00,24.0,-99.9,-100.00,West,267,3.0,-999.0,-999,0.00,,,0.02,,2013-01-03 12:23:00,
2013-01-03 06:33:00,24.0,-99.9,-100.00,West,268,4.0,-999.0,-999,0.00,,,0.02,,2013-01-03 12:33:00,
2013-01-03 06:43:00,24.0,-99.9,-100.00,West,268,4.0,-999.0,-999,0.00,,,0.02,,2013-01-03 12:43:00,
2013-01-03 06:53:00,24.0,-99.9,-100.00,WSW,247,3.0,-999.0,-999,0.00,,,0.02,,2013-01-03 12:53:00,
2013-01-03 07:03:00,24.0,-99.9,-100.00,WSW,247,3.0,-999.0,-999,0.00,,,0.02,,2013-01-03 13:03:00,
2013-01-03 07:13:00,24.0,-99.9,-100.00,WSW,247,3.0,-999.0,-999,0.00,,,0.02,,2013-01-03 13:13:00,
2013-01-03 07:22:00,24.0,-99.9,-100.00,WSW,247,3.0,-999.0,-999,0.00,,,0.02,,2013-01-03 13:22:00,
2013-01-03 07:33:00,24.0,-99.9,-100.00,SW,236,1.0,-999.0,-999,0.00,,,0.02,,2013-01-03 13:33:00,
2013-01-03 07:43:00,24.0,-99.9,-100.00,SW,236,1.0,-999.0,-999,0.00,,,0.02,,2013-01-03 13:43:00,
2013-01-03 07:53:00,24.0,-99.9,-100.00,SW,236,1.0,-999.0,-999,0.00,,,0.02,,2013-01-03 13:53:00,
2013-01-03 08:03:00,23.0,-99.9,-100.00,WSW,237,3.0,-999.0,-999,0.00,,,0.02,,2013-01-03 14:03:00,
2013-01-03 08:12:00,23.0,-99.9,-100.00,WSW,237,3.0,-999.0,-999,0.00,,,0.02,,2013-01-03 14:12:00,
2013-01-03 08:23:00,23.0,-99.9,-100.00,WSW,237,3.0,-999.0,-999,0.00,,,0.02,,2013-01-03 14:23:00,
2013-01-03 08:33:00,25.0,-99.9,-100.00,North,9,1.0,-999.0,-999,0.00,,,0.02,,2013-01-03 14:33:00,
2013-01-03 08:43:00,25.0,-99.9,-100.00,North,9,1.0,-999.0,-999,0.00,,,0.02,,2013-01-03 14:43:00,
2013-01-03 08:53:00,25.0,-99.9,-100.00,North,9,1.0,-999.0,-999,0.00,,,0.02,,2013-01-03 14:53:00,
2013-01-03 09:03:00,25.0,-99.9,-100.00,SW,220,1.0,-999.0,-999,0.00,,,0.02,,2013-01-03 15:03:00,
2013-01-03 09:13:00,25.0,-99.9,-100.00,SW,220,1.0,-999.0,-999,0.00,,,0.02,,2013-01-03 15:13:00,
2013-01-03 09:23:00,25.0,-99.9,-100.00,SW,220,1.0,-999.0,-999,0.00,,,0.02,,2013-01-03 15:23:00,
2013-01-03 09:34:00,28.0,-99.9,-100.00,North,350,3.0,-999.0,-999,0.00,,,0.02,,2013-01-03 15:34:00,
2013-01-03 09:43:00,28.0,-99.9,-100.00,North,350,3.0,-999.0,-999,0.00,,,0.02,,2013-01-03 15:43:00,
2013-01-03 09:53:00,28.0,-99.9,-100.00,North,350,3.0,-999.0,-999,0.00,,,0.02,,2013-01-03 15:53:00,
2013-01-03 10:03:00,31.0,-99.9,-100.00,South,183,3.0,-999.0,-999,0.00,,,0.02,,2013-01-03 16:03:00,
2013-01-03 10:13:00,31.0,-99.9,-100.00,South,183,3.0,-999.0,-999,0.00,,,0.02,,2013-01-03 16:13:00,
2013-01-03 10:23:00,31.0,-99.9,-100.00,South,183,3.0,-999.0,-999,0.00,,,0.02,,2013-01-03 16:23:00,
2013-01-03 10:34:00,30.0,-99.9,-100.00,NW,324,5.0,-999.0,-999,0.00,,,0.02,,2013-01-03 16:34:00,
2013-01-03 10:43:00,30.0,-99.9,-100.00,NW,324,5.0,-999.0,-999,0.00,,,0.02,,2013-01-03 16:43:00,
2013-01-03 10:53:00,30.0,-99.9,-100.00,NW,324,5.0,-999.0,-999,0.00,,,0.02,,2013-01-03 16:53:00,
2013-01-03 11:03:00,33.0,-99.9,-100.00,WSW,240,3.0,-999.0,-999,0.00,,,0.02,,2013-01-03 17:03:00,
2013-01-03 11:13:00,33.0,-99.9,-100.00,WSW,240,3.0,-999.0,-999,0.00,,,0.02,,2013-01-03 17:13:00,
2013-01-03 11:23:00,33.0,-99.9,-100.00,WSW,240,3.0,-999.0,-999,0.00,,,0.02,,2013-01-03 17:23:00,
2013-01-03 11:33:00,35.0,-99.9,-100.00,NW,311,3.0,-999.0,-999,0.00,,,0.02,,2013-01-03 17:33:00,
2013-01-03 11:43:00,35.0,-99.9,-100.00,NW,311,3.0,-999.0,-999,0.00,,,0.02,,2013-01-03 17:43:00,
2013-01-03 11:53:00,35.0,-99.9,-100.00,NW,311,3.0,-999.0,-999,0.00,,,0.02,,2013-01-03 17:53:00,
2013-01-03 12:04:00,36.0,-99.9,-100.00,NW,314,2.0,-999.0,-999,0.01,,,0.02,,2013-01-03 18:04:00,
2013-01-03 12:13:00,36.0,-99.9,-100.00,NW,314,2.0,-999.0,-999,0.01,,,0.02,,2013-01-03 18:13:00,
2013-01-03 12:23:00,36.0,-99.9,-100.00,NW,314,2.0,-999.0,-999,0.01,,,0.02,,2013-01-03 18:23:00,
2013-01-03 12:30:00,36.0,-99.9,-100.00,NW,319,7.0,-999.0,-999,0.06,,,0.08,,2013-01-03 18:30:00,
2013-01-03 12:33:00,36.0,-99.9,-100.00,NW,310,2.0,-999.0,-999,0.01,,,0.02,,2013-01-03 18:33:00,
2013-01-03 12:43:00,36.0,-99.9,-100.00,NW,310,2.0,-999.0,-999,0.01,,,0.02,,2013-01-03 18:43:00,
2013-01-03 12:54:00,36.0,-99.9,-100.00,NW,310,2.0,-999.0,-999,0.01,,,0.02,,2013-01-03 18:54:00,
2013-01-03 13:03:00,36.0,-99.9,-100.00,NW,319,7.0,-999.0,-999,0.06,,,0.08,,2013-01-03 19:03:00,
2013-01-03 13:13:00,36.0,-99.9,-100.00,NW,319,7.0,-999.0,-999,0.06,,,0.08,,2013-01-03 19:13:00,
2013-01-03 13:57:00,35.0,-99.9,-100.00,NW,318,7.0,-999.0,-999,0.09,,,0.11,,2013-01-03 19:57:00,
2013-01-03 14:03:00,36.0,-99.9,-100.00,NW,319,8.0,-999.0,-999,0.03,,,0.11,,2013-01-03 20:03:00,
2013-01-03 14:13:00,36.0,-99.9,-100.00,NW,319,8.0,-999.0,-999,0.03,,,0.11,,2013-01-03 20:13:00,
2013-01-03 14:23:00,36.0,-99.9,-100.00,NW,319,8.0,-999.0,-999,0.03,,,0.11,,2013-01-03 20:23:00,
2013-01-03 14:33:00,38.0,-99.9,-100.00,NNW,328,5.0,-999.0,-999,0.00,,,0.10,,2013-01-03 20:33:00,
2013-01-03 14:43:00,38.0,-99.9,-100.00,NNW,328,5.0,-999.0,-999,0.00,,,0.10,,2013-01-03 20:43:00,
2013-01-03 14:53:00,38.0,-99.9,-100.00,NNW,328,5.0,-999.0,-999,0.00,,,0.10,,2013-01-03 20:53:00,
2013-01-03 15:03:00,38.0,-99.9,-100.00,NW,319,2.0,-999.0,-999,0.00,,,0.10,,2013-01-03 21:03:00,
2013-01-03 15:13:00,38.0,-99.9,-100.00,NW,319,2.0,-999.0,-999,0.00,,,0.10,,2013-01-03 21:13:00,
2013-01-03 15:23:00,38.0,-99.9,-100.00,NW,319,2.0,-999.0,-999,0.00,,,0.10,,2013-01-03 21:23:00,
2013-01-03 15:38:00,37.0,-99.9,-100.00,NW,322,6.0,-999.0,-999,0.00,,,0.10,,2013-01-03 21:38:00,
2013-01-03 15:51:00,37.0,-99.9,-100.00,NW,322,6.0,-999.0,-999,0.00,,,0.10,,2013-01-03 21:51:00,
2013-01-03 16:03:00,36.0,-99.9,-100.00,WNW,299,2.0,-999.0,-999,0.00,,,0.10,,2013-01-03 22:03:00,
2013-01-03 16:12:00,36.0,-99.9,-100.00,WNW,299,2.0,-999.0,-999,0.00,,,0.10,,2013-01-03 22:12:00,
2013-01-03 16:23:00,36.0,-99.9,-100.00,WNW,299,2.0,-999.0,-999,0.00,,,0.10,,2013-01-03 22:23:00,
2013-01-03 16:33:00,36.0,-99.9,-100.00,NNW,328,2.0,-999.0,-999,0.00,,,0.10,,2013-01-03 22:33:00,
2013-01-03 16:43:00,36.0,-99.9,-100.00,NNW,328,2.0,-999.0,-999,0.00,,,0.10,,2013-01-03 22:43:00,
2013-01-03 16:53:00,36.0,-99.9,-100.00,NNW,328,2.0,-999.0,-999,0.00,,,0.10,,2013-01-03 22:53:00,
2013-01-03 17:03:00,35.0,-99.9,-100.00,NW,326,4.0,-999.0,-999,0.00,,,0.10,,2013-01-03 23:03:00,
2013-01-03 17:13:00,35.0,-99.9,-100.00,NW,326,4.0,-999.0,-999,0.00,,,0.10,,2013-01-03 23:13:00,
2013-01-03 17:23:00,35.0,-99.9,-100.00,NW,326,4.0,-999.0,-999,0.00,,,0.10,,2013-01-03 23:23:00,
2013-01-03 17:33:00,35.0,-99.9,-100.00,NNW,335,4.0,-999.0,-999,0.00,,,0.10,,2013-01-03 23:33:00,
2013-01-03 17:43:00,35.0,-99.9,-100.00,NNW,335,4.0,-999.0,-999,0.00,,,0.10,,2013-01-03 23:43:00,
2013-01-03 17:53:00,33.0,-99.9,-100.00,NNW,339,2.0,-999.0,-999,0.00,,,0.10,,2013-01-03 23:53:00,
2013-01-03 18:03:00,33.0,-99.9,-100.00,NNW,339,2.0,-999.0,-999,0.00,,,0.10,,2013-01-04 00:03:00,
2013-01-03 18:13:00,33.0,-99.9,-100.00,NNW,339,2.0,-999.0,-999,0.00,,,0.10,,2013-01-04 00:13:00,
2013-01-03 18:23:00,33.0,-99.9,-100.00,NNW,339,2.0,-999.0,-999,0.00,,,0.10,,2013-01-04 00:23:00,
2013-01-03 18:33:00,32.0,-99.9,-100.00,WSW,241,1.0,-999.0,-999,0.00,,,0.10,,2013-01-04 00:33:00,
2013-01-03 18:43:00,32.0,-99.9,-100.00,WSW,241,1.0,-999.0,-999,0.00,,,0.10,,2013-01-04 00:43:00,
2013-01-03 18:53:00,32.0,-99.9,-100.00,WSW,241,1.0,-999.0,-999,0.00,,,0.10,,2013-01-04 00:53:00,
2013-01-03 19:03:00,32.0,-99.9,-100.00,WSW,253,1.0,-999.0,-999,0.00,,,0.10,,2013-01-04 01:03:00,
2013-01-03 19:13:00,32.0,-99.9,-100.00,WSW,253,1.0,-999.0,-999,0.00,,,0.10,,2013-01-04 01:13:00,
2013-01-03 19:22:00,32.0,-99.9,-100.00,WSW,253,1.0,-999.0,-999,0.00,,,0.10,,2013-01-04 01:22:00,
2013-01-03 19:33:00,34.0,-99.9,-100.00,NW,312,6.0,-999.0,-999,0.00,,,0.10,,2013-01-04 01:33:00,
2013-01-03 19:43:00,34.0,-99.9,-100.00,NW,312,6.0,-999.0,-999,0.00,,,0.10,,2013-01-04 01:43:00,
2013-01-03 19:53:00,34.0,-99.9,-100.00,NW,312,6.0,-999.0,-999,0.00,,,0.10,,2013-01-04 01:53:00,
2013-01-03 20:02:00,33.0,-99.9,-100.00,NW,321,6.0,-999.0,-999,0.00,,,0.10,,2013-01-04 02:02:00,
2013-01-03 20:12:00,33.0,-99.9,-100.00,NW,321,6.0,-999.0,-999,0.00,,,0.10,,2013-01-04 02:12:00,
2013-01-03 20:23:00,33.0,-99.9,-100.00,NW,321,6.0,-999.0,-999,0.00,,,0.10,,2013-01-04 02:23:00,
2013-01-03 20:33:00,31.0,-99.9,-100.00,NW,313,5.0,-999.0,-999,0.00,,,0.10,,2013-01-04 02:33:00,
2013-01-03 20:43:00,31.0,-99.9,-100.00,NW,313,5.0,-999.0,-999,0.00,,,0.10,,2013-01-04 02:43:00,
2013-01-03 20:53:00,31.0,-99.9,-100.00,NW,313,5.0,-999.0,-999,0.00,,,0.10,,2013-01-04 02:53:00,
2013-01-03 21:03:00,29.0,-99.9,-100.00,NNW,333,10.0,-999.0,-999,0.00,,,0.10,,2013-01-04 03:03:00,
2013-01-03 21:12:00,29.0,-99.9,-100.00,NNW,333,10.0,-999.0,-999,0.00,,,0.10,,2013-01-04 03:12:00,
2013-01-03 21:23:00,29.0,-99.9,-100.00,NNW,333,10.0,-999.0,-999,0.00,,,0.10,,2013-01-04 03:23:00,
2013-01-03 21:33:00,28.0,-99.9,-100.00,NNW,329,8.0,-999.0,-999,0.00,,,0.10,,2013-01-04 03:33:00,
2013-01-03 21:43:00,28.0,-99.9,-100.00,NNW,329,8.0,-999.0,-999,0.00,,,0.10,,2013-01-04 03:43:00,
2013-01-03 21:53:00,28.0,-99.9,-100.00,NNW,329,8.0,-999.0,-999,0.00,,,0.10,,2013-01-04 03:53:00,
2013-01-03 22:02:00,27.0,-99.9,-100.00,NW,312,6.0,-999.0,-999,0.00,,,0.10,,2013-01-04 04:02:00,
2013-01-03 22:12:00,27.0,-99.9,-100.00,NW,312,6.0,-999.0,-999,0.00,,,0.10,,2013-01-04 04:12:00,
2013-01-03 22:22:00,27.0,-99.9,-100.00,NW,312,6.0,-999.0,-999,0.00,,,0.10,,2013-01-04 04:22:00,
2013-01-03 22:33:00,24.0,-99.9,-100.00,WNW,287,2.0,-999.0,-999,0.00,,,0.10,,2013-01-04 04:33:00,
2013-01-03 22:42:00,24.0,-99.9,-100.00,WNW,287,2.0,-999.0,-999,0.00,,,0.10,,2013-01-04 04:42:00,
2013-01-03 22:53:00,24.0,-99.9,-100.00,West,280,3.0,-999.0,-999,0.00,,,0.10,,2013-01-04 04:53:00,
2013-01-03 23:00:00,23.0,-99.9,-100.00,West,268,3.0,-999.0,-999,0.00,,,0.10,,2013-01-04 05:00:00,
2013-01-03 23:04:00,24.0,-99.9,-100.00,West,280,3.0,-999.0,-999,0.00,,,0.10,,2013-01-04 05:04:00,
2013-01-03 23:12:00,24.0,-99.9,-100.00,West,280,3.0,-999.0,-999,0.00,,,0.10,,2013-01-04 05:12:00,
2013-01-03 23:22:00,24.0,-99.9,-100.00,West,280,3.0,-999.0,-999,0.00,,,0.10,,2013-01-04 05:22:00,
2013-01-03 23:33:00,23.0,-99.9,-100.00,West,268,3.0,-999.0,-999,0.00,,,0.10,,2013-01-04 05:33:00,
2013-01-03 23:43:00,23.0,-99.9,-100.00,West,268,3.0,-999.0,-999,0.00,,,0.10,,2013-01-04 05:43:00,
2013-01-03 23:53:00,23.0,-99.9,-100.00,West,268,3.0,-999.0,-999,0.00,,,0.10,,2013-01-04 05:53:00,